If you wish to contribute or participate in the discussions about articles you are invited to join SKYbrary as a registered user

 Actions

Abadan-Ayatollah Jami International Airport

From SKYbrary Wiki

OIAA
Airport
ICAO: OIAA – IATA: ABD
Summary
Name Abadan-Ayatollah Jami International Airport
Region Middle East
Territory Iran IR.gif
Location Abadan, Khuzestan
Serving Abadan
Elevation 2.134 m
7 ft2.134 m
Coordinates 30° 21' 50.82" N, 48° 13' 36.88" E
Runways
Designator Length Width Surface ROPS
14L/32R 2267 m7,437.664 ft
35 m114.829 ft
ASP /
14R/32L 3100 m10,170.604 ft
45 m147.638 ft
ASP /


METAR
Observation OIAA 201930Z 32014KT 8000 FEW035CB SCT040 NSC 31/18 Q1011
Station Abadan
Date/Time 20 May 2019 19:30:00
Wind direction 320°
Wind speed 14 kts
Lowest cloud amount few clouds
Temperature 31°C
Dew point 18°C
Humidity 45%
QNH 1011 hPa
Weather condition n/a

Abadan International Airport is situated 12 km6.479 nm
12,000 m
39,370.079 ft
away from the city of Abadan, Iran.

Climatology

Warm desert climate (Köppen climate classification BWh).

Maps

Terrain

Loading map...

Airport Layout

Loading map...


Accidents & Serious Incidents at or in vicinity of OIAA

None on SKYbrary